Tracking 23645 objects as of 21-Sep-2021
HD Live streaming from Space Station
objects crossing your sky now

STARLINK-1688

Track STARLINK-1688 now!
10-day predictions
STARLINK-1688 is classified as:


NORAD ID: 46371
Int'l Code: 2020-062AY
Perigee: 552.8 km
Apogee: 556.0 km
Inclination: 53.1 °
Period: 95.6 minutes
Semi major axis: 6925 km
RCS: Unknown
Launch date: September 3, 2020
Source: United States (US)
Launch site: AIR FORCE EASTERN TEST RANGE (AFETR)
aabbcc
Your satellite tracking list
Your tracking list is empty




NASA's NSSDC Master Catalog

Two Line Element Set (TLE):
1 46371U 20062AY  21264.28408328 -.00000957  00000-0 -45352-4 0  9997
2 46371  53.0550 115.8070 0002287  72.9126 287.2113 15.06389837 58859
Source of the keplerian elements: AFSPC